Flight Track Log - Related Links

Times and Time Zones

All times are in EDT time to prevent confusion due to time zone crossing. See the VOODOO1 flight status page for this flight to view local times or setup timezone preferences in your user account.

Time Position Orientation Groundspeed Altitude Reporting Facility
EDT Latitude Longitude Course Direction KTS MPH feet Rate Location/Type
07:23PM 35.6875 -118.0856 37° Northeast 366 421 24,100  Level Los Angeles Center
07:24PM 35.5836 -118.1067 189° South 379 436 24,100  Level Los Angeles Center
07:25PM 35.4783 -118.1286 190° South 383 441 24,100 -48 Level Los Angeles Center
07:26PM 35.3736 -118.1522 190° South 384 442 24,000 -48 Descending Los Angeles Center
07:27PM -19.7249 -160.5137 120° Southeast  Level Estimated
07:27PM 35.2664 -118.1642 185° South 388 447 24,000  Level Los Angeles Center
07:28PM -19.6616 -160.4627 37° Northeast  Level Estimated
07:28PM 35.1417 -118.1747 184° South 378 435 22,000  Level Los Angeles Center
07:29PM 35.0386 -118.1756 180° South 374 430 20,000 -976 Descending Los Angeles Center
07:30PM 34.9381 -118.1822 183° South 367 422 20,000  Level Los Angeles Center
07:31PM 34.8342 -118.2089 192° South 385 443 20,000  Level Los Angeles Center
07:32PM 34.7400 -118.2628 205° Southwest 381 438 20,000  Level Los Angeles Center
07:33PM 34.6372 -118.3219 205° Southwest 380 437 20,000 48 Level Los Angeles Center
07:34PM 34.5764 -118.4108 230° Southwest 362 417 20,100  Climbing Los Angeles Center
07:35PM 34.5739 -118.5531 269° West 353 406 20,000 -97 Descending Los Angeles Center
07:36PM 34.5742 -118.6728 270° West 357 411 19,900 -1,152 Descending Los Angeles Center
07:37PM 34.5350 -118.7678 243° Southwest 349 402 17,600 -2,256 Descending Los Angeles Center
07:38PM 34.4408 -118.7775 185° South 343 395 15,200 -2,371 Descending Los Angeles Center
07:39PM 34.3436 -118.7867 184° South 349 402 12,700 -1,548 Descending Los Angeles Center
07:40PM 34.2292 -118.7939 183° South 345 397 12,000 -484 Descending Los Angeles Center
07:41PM 34.1347 -118.8069 187° South 342 394 11,700 -968 Descending Los Angeles Center
07:42PM 34.0517 -118.7900 170° South 324 373 10,000 -823 Descending Los Angeles Center
07:43PM 34.0361 -118.6836 100° East 285 328 10,000 -581 Level Los Angeles Center
07:44PM 34.0336 -118.5894 92° East 283 326 8,800 -1,113 Descending Los Angeles Center
07:45PM 34.0239 -118.4975 97° East 276 318 7,700 -1,403 Descending Los Angeles Center
07:47PM 34.0286 -118.4114 86° East 252 290 5,900 -1,452 Descending Los Angeles Center
07:48PM 34.0442 -118.3406 75° East 223 257 4,700 -1,258 Descending Los Angeles Center
07:49PM 34.0489 -118.2747 85° East 205 236 3,300 -1,056 Descending Los Angeles Center
07:50PM 34.0058 -118.2533 158° South 188 216 2,500 -528 Descending Los Angeles Center
07:51PM 33.9711 -118.2828 215° Southwest 169 194 2,200 -581 Descending Los Angeles Center
07:52PM 33.9589 -118.3281 252° West 153 176 1,300 -823 Descending Los Angeles Center
07:53PM 33.9553 -118.3817 265° West 140 161 500 -532 Descending Los Angeles Center
07:54PM 33.9503 -118.4231 262° West 139 160 200 -290 Descending Los Angeles Center
07:56PM 33.9425 -118.4081 228° Southwest  Level Estimated

Login

Don't have an account? Register now (free) for customized features, flight alerts, and more!